Temperature
8 8 8 8 9 9 8 10 10 11 12 12 13 13 12 11 11 10 9 9 9 9 9 9 9 9 9 9 8 8 7 6 5 4 4 4 3 3 3 3 3 3 3 4
7 7 8 8 8 9 9 9 10 10 11 12 12 11 11 10 10 10 9 9 9 9 9 10 10 9 9 8 8 7 6 5 4 4 3 3 2 2 2 2 2 2 2 2
8 7 7 8 9 9 8 9 9 10 11 12 11 10 10 10 9 9 9 9 9 10 10 10 10 10 9 8 7 6 5 4 3 2 2 1 1 1 1 1 1 1 2 2
7 7 7 9 8 8 8 9 9 9 9 10 9 9 9 9 9 9 9 9 10 10 10 10 10 9 9 8 7 6 5 3 2 2 1 1 0 0 0 0 1 1 1 1
7 7 8 9 8 8 8 8 8 8 9 8 8 8 9 8 8 8 8 9 9 10 10 10 10 9 8 7 6 5 4 3 2 1 1 0 0 0 0 0 0 1 1 1
7 7 8 9 8 7 8 8 8 7 8 7 7 9 10 8 8 8 9 9 9 10 10 10 9 9 8 7 6 5 4 3 2 1 1 0 0 0 0 0 0 0 1 1
7 7 8 8 7 7 8 8 6 6 6 6 6 7 7 7 8 8 9 9 9 9 9 9 9 8 7 7 6 5 4 3 2 1 1 1 0 0 0 0 0 0 0 1
7 7 7 7 6 7 7 5 5 5 5 4 5 5 6 7 7 8 8 8 9 9 9 8 8 7 7 6 5 4 3 3 2 1 1 1 0 0 0 0 0 0 0 1
7 7 6 5 5 4 4 4 4 3 4 4 4 5 6 6 7 7 8 8 8 8 8 7 7 7 6 5 4 4 3 3 2 2 1 1 1 0 0 0 0 1 1 1
5 6 5 4 3 3 2 2 2 3 3 4 4 4 5 6 6 7 7 7 7 7 7 7 6 6 5 4 4 4 3 3 2 2 1 1 1 0 1 1 1 1 1 1
4 4 4 4 3 2 2 2 2 2 3 3 4 4 5 5 6 6 6 6 6 6 6 6 5 5 4 4 4 3 3 2 2 2 2 1 1 1 1 1 1 1 1 0
3 2 2 2 1 1 1 1 1 1 2 3 3 3 4 5 5 5 6 6 6 6 5 5 5 4 4 4 3 3 3 2 2 2 2 1 1 1 1 1 1 1 1 0
-0 -0 -0 -0 -0 -0 -0 0 0 1 1 2 2 3 3 4 4 5 5 5 5 5 5 5 4 4 4 4 3 3 3 2 2 2 2 2 1 1 1 1 1 1 1 0
-1 -1 -1 -1 -1 -1 -1 -1 -0 0 1 1 1 2 2 3 3 4 4 4 4 4 4 4 4 4 4 3 3 3 3 2 2 2 2 1 1 1 1 1 0 1 0 -0
-2 -2 -2 -2 -2 -1 -1 -1 -1 -1 -0 0 0 1 1 2 2 3 3 3 4 4 4 4 4 3 3 3 3 3 2 2 2 2 2 1 1 1 1 0 0 0 -0 -0
-2 -2 -2 -2 -2 -2 -2 -2 -2 -1 -1 -1 -1 -0 0 1 1 2 2 2 3 3 3 3 3 3 3 3 2 2 2 2 2 1 1 1 1 1 1 0 0 0 0 -0
-3 -3 -3 -3 -3 -3 -3 -3 -2 -2 -2 -2 -1 -1 -1 -0 0 1 1 1 2 2 2 2 2 2 2 2 2 2 2 2 1 1 1 1 1 1 0 0 0 0 0 -0
-3 -3 -3 -3 -3 -3 -3 -3 -3 -3 -2 -2 -2 -2 -1 -1 -1 -0 0 0 1 1 1 1 1 2 2 2 1 1 1 1 1 1 1 1 0 0 0 -0 -0 -0 -0 -1
-3 -3 -3 -3 -3 -4 -3 -3 -3 -3 -3 -3 -2 -2 -2 -2 -1 -1 -1 -1 -0 -0 0 0 1 1 1 1 1 1 1 0 0 0 0 -0 -0 -0 -0 -0 -0 -1 -1 -1
-2 -3 -3 -3 -3 -3 -3 -3 -3 -3 -3 -3 -3 -3 -3 -2 -2 -2 -1 -1 -1 -1 -0 -0 -0 0 0 0 -0 -0 -0 -0 -0 -0 -0 -0 -1 -1 -1 -1 -1 -1 -1 -2
-2 -3 -3 -3 -3 -3 -3 -3 -4 -4 -4 -4 -4 -3 -3 -3 -3 -2 -2 -2 -2 -2 -1 -1 -1 -1 -1 -1 -0 -0 -0 -1 -1 -1 -1 -1 -1 -1 -1 -1 -2 -2 -2 -2
-3 -3 -3 -3 -3 -3 -3 -4 -4 -4 -4 -4 -4 -4 -3 -3 -3 -3 -3 -3 -2 -2 -2 -2 -2 -2 -1 -1 -1 -1 -1 -1 -1 -1 -1 -2 -2 -2 -2 -2 -3 -3 -3 -3
-3 -3 -3 -3 -4 -4 -4 -4 -4 -4 -4 -4 -4 -4 -3 -3 -3 -3 -3 -3 -3 -3 -2 -2 -2 -2 -2 -2 -2 -2 -2 -2 -2 -2 -2 -2 -2 -3 -3 -3 -3 -4 -4 -4
-3 -3 -3 -3 -3 -4 -3 -3 -4 -4 -4 -4 -4 -4 -4 -4 -3 -4 -3 -3 -3 -3 -3 -3 -2 -2 -2 -2 -2 -2 -3 -3 -3 -3 -3 -3 -3 -3 -3 -4 -4 -4 -4 -4
-2 -3 -3 -3 -3 -3 -3 -3 -4 -4 -4 -4 -4 -4 -4 -4 -4 -4 -4 -3 -3 -3 -3 -3 -3 -3 -3 -3 -3 -3 -3 -3 -3 -3 -3 -3 -4 -4 -4 -4 -4 -4 -4 -5
-2 -3 -3 -3 -3 -3 -3 -4 -4 -4 -4 -4 -4 -4 -4 -4 -4 -4 -4 -4 -4 -3 -3 -3 -3 -3 -3 -3 -3 -3 -3 -3 -4 -4 -4 -4 -4 -4 -4 -4 -5 -5 -5 -5
-2 -3 -3 -3 -3 -3 -3 -4 -4 -4 -4 -4 -4 -4 -4 -4 -4 -4 -4 -4 -4 -4 -4 -4 -4 -4 -4 -4 -4 -4 -4 -4 -4 -4 -4 -4 -4 -5 -5 -5 -5 -5 -5 -5
Wind_Speed
1 1 3 6 9 13 14 14 12 13 15 15 15 15 15 13 10 8 8 10 12 12 12 12 11 10 9 8 8 7 7 6 5 4 4 4 4 3 3 3 3 4 4 4
1 1 3 5 10 12 14 15 17 18 18 15 14 13 14 14 12 12 12 12 13 13 13 13 13 12 11 10 9 8 7 7 6 6 5 5 5 4 4 4 4 4 4 4
2 1 2 7 8 12 9 10 11 14 13 12 12 13 13 13 13 13 13 12 13 15 15 14 14 13 12 11 10 9 8 7 7 7 6 6 5 5 5 5 5 5 5 5
2 2 6 0 1 3 7 7 9 11 13 13 14 15 14 12 12 13 13 12 12 13 13 13 12 12 11 11 10 10 9 8 7 7 7 6 6 6 6 5 5 5 5 4
3 3 5 2 1 3 4 2 2 5 9 11 12 11 8 6 8 11 11 11 10 10 11 11 13 13 12 12 11 10 9 9 8 8 8 8 7 7 6 5 5 4 4 3
3 3 3 1 2 1 3 3 4 6 9 11 9 7 7 9 10 9 7 6 5 6 9 11 12 13 13 12 12 11 10 9 8 8 8 8 7 7 5 5 5 4 3 2
6 5 4 3 2 3 3 1 7 8 10 10 7 8 12 13 10 7 4 1 3 7 8 10 12 13 13 12 12 10 9 9 8 8 8 8 7 6 6 5 5 4 4 4
5 6 3 3 2 1 3 6 8 9 10 11 11 11 10 9 7 5 3 1 3 5 6 8 11 13 12 11 10 10 10 9 9 8 8 7 8 7 7 6 6 6 5 6
3 1 3 3 2 3 5 8 8 10 11 11 11 10 10 8 6 4 2 1 2 5 6 8 10 11 11 10 11 11 11 10 9 9 8 8 8 8 7 7 6 6 6 6
3 1 4 3 2 6 8 9 10 11 11 11 11 11 10 8 6 4 2 2 3 5 7 8 9 10 9 10 12 12 11 10 10 10 9 9 7 7 7 8 7 7 7 6
4 4 6 2 7 11 12 11 12 11 11 10 11 10 9 8 6 5 3 3 4 6 6 8 9 9 9 10 12 12 11 10 10 9 9 9 8 8 9 9 9 8 7 6
4 6 8 11 13 15 14 14 13 13 13 11 10 10 9 8 6 5 4 3 5 6 7 7 8 9 10 11 12 12 11 10 9 9 8 8 8 8 12 12 12 14 12 8
7 10 12 14 14 12 13 14 13 12 12 12 10 9 9 8 6 5 4 4 5 6 6 7 8 9 10 11 12 13 12 11 9 9 9 9 9 9 8 10 15 16 16 16
9 9 10 10 12 13 13 13 11 11 10 9 9 9 8 7 5 5 4 4 4 5 5 6 7 8 9 11 12 13 12 11 10 9 9 9 9 9 8 8 7 8 12 17
7 9 11 13 13 12 11 11 11 10 10 10 8 8 7 7 6 5 5 4 3 3 3 4 5 6 6 9 11 12 11 9 10 9 9 9 9 9 8 9 8 6 5 8
12 11 10 11 11 11 11 10 10 10 10 10 8 8 7 7 6 5 4 3 3 3 3 3 4 4 4 7 9 9 10 11 10 8 8 8 8 8 8 9 9 8 8 7
10 9 10 11 11 11 11 10 9 9 10 9 8 8 7 6 5 4 3 3 2 2 2 2 3 3 3 5 7 7 7 8 12 9 8 8 8 9 9 9 9 9 8 9
8 10 10 11 11 11 10 9 9 8 8 8 7 6 6 5 5 4 4 3 1 1 2 3 3 3 2 3 5 5 6 6 7 8 8 8 8 8 8 9 9 9 7 7
9 9 10 9 9 8 8 8 8 8 8 7 6 6 5 5 4 4 3 2 2 2 3 4 5 3 2 2 3 3 4 5 5 6 6 8 9 8 8 8 8 8 7 7
9 9 9 9 8 7 7 7 7 7 6 6 6 5 5 5 4 4 2 1 1 2 4 5 4 3 3 2 2 2 3 4 5 5 5 6 6 7 7 7 8 8 8 8
9 9 8 8 8 7 7 7 6 6 6 5 5 5 5 5 4 3 2 2 2 4 5 5 3 3 3 2 2 2 3 3 4 4 4 5 5 6 6 7 7 7 7 7
8 8 8 8 8 8 7 6 6 6 6 5 5 4 4 5 4 3 2 2 4 6 5 3 3 4 4 3 2 2 2 3 3 3 4 4 5 5 6 6 6 7 7 7
8 8 8 8 8 9 8 7 6 6 6 6 5 5 4 4 4 3 3 3 4 6 5 3 5 6 5 2 2 2 2 3 3 3 4 4 5 5 5 6 6 6 6 6
8 8 8 8 8 8 8 7 6 5 6 6 6 5 4 4 3 3 3 5 6 6 4 5 6 6 4 2 2 2 2 3 3 3 4 4 4 5 5 5 5 5 6 7
8 8 8 8 7 7 7 7 6 6 6 5 6 5 4 3 4 4 4 4 6 5 4 4 6 5 3 2 2 2 2 3 3 3 4 4 4 4 5 5 5 5 5 6
7 7 7 7 7 7 6 5 5 5 5 5 5 4 3 3 4 4 4 4 4 5 4 3 3 4 3 3 3 3 3 3 4 4 4 4 5 5 5 5 6 5 5 5
8 7 6 6 6 5 5 5 6 6 5 5 5 4 3 3 3 4 4 3 3 3 3 3 3 3 3 3 3 3 3 3 3 4 4 4 4 4 5 5 5 5 5 5
Wind_Direction
67 91 165 201 210 210 217 230 244 257 260 264 273 284 290 291 285 267 243 221 209 202 197 192 188 185 182 178 176 176 179 183 181 173 166 162 157 149 137 127 118 113 109 103
167 190 216 237 232 225 230 238 246 261 270 276 285 288 284 279 272 262 250 234 220 209 202 199 195 189 184 181 178 178 182 182 174 173 170 167 160 151 142 131 119 113 111 108
192 173 250 254 238 224 222 226 237 254 270 295 297 290 285 281 272 260 254 240 224 214 207 203 197 189 185 180 174 179 183 179 177 178 175 169 161 157 151 138 128 121 114 110
186 195 233 333 72 223 227 249 251 265 283 295 297 297 290 282 275 268 257 245 231 219 209 200 189 182 176 172 175 179 182 182 181 180 176 168 165 161 152 144 140 131 125 122
203 237 266 289 199 201 208 235 324 289 303 314 316 301 285 291 290 276 266 253 240 220 203 187 180 174 170 173 177 181 185 184 182 180 176 172 171 164 156 151 143 140 136 132
203 237 240 80 43 203 205 192 28 336 324 327 327 314 324 337 321 304 288 262 229 195 180 176 173 169 171 176 180 186 186 183 179 179 178 176 170 162 159 157 153 153 147 151
222 239 263 346 337 182 221 1 346 331 325 325 312 292 308 317 317 316 315 284 175 168 172 172 166 168 175 179 186 182 175 172 174 177 177 171 164 162 159 162 164 174 181 198
214 226 236 36 100 141 345 338 326 323 324 319 309 305 311 318 323 329 339 73 153 160 160 161 167 172 177 182 177 169 168 171 174 175 172 170 168 168 172 177 183 194 207 217
238 260 44 37 85 33 349 326 325 322 320 317 312 312 317 318 319 319 315 198 169 164 158 166 176 181 182 177 168 167 171 177 178 177 177 178 181 182 184 191 201 207 213 221
282 301 336 323 14 348 339 324 318 316 314 313 310 310 313 312 309 300 273 210 184 176 177 181 186 190 185 172 170 173 178 181 181 183 185 187 191 195 198 200 206 211 215 220
288 322 334 333 341 334 328 323 320 319 316 312 309 306 307 305 301 291 262 217 198 200 199 195 190 193 185 176 175 181 184 185 186 190 192 196 202 207 209 215 215 212 215 218
297 323 309 300 315 321 318 318 317 315 314 315 310 303 302 297 294 283 263 230 213 213 212 203 195 197 191 185 184 186 189 191 192 194 197 200 204 215 225 226 228 231 233 230
286 295 292 291 299 308 309 310 311 309 306 307 309 305 299 295 292 283 264 243 233 229 222 211 204 204 198 192 192 196 199 196 195 197 200 202 206 211 218 224 230 234 233 232
289 295 292 298 303 307 306 307 308 307 307 307 308 308 304 299 296 288 279 270 256 242 232 221 216 215 205 198 199 205 207 204 201 202 203 205 207 211 214 213 213 224 228 230
302 301 293 297 300 304 308 308 308 309 311 313 312 310 309 305 300 299 301 298 269 244 234 225 225 227 212 204 206 209 210 210 208 207 206 208 208 210 214 217 221 222 212 222
309 306 304 307 308 312 315 313 310 309 312 311 310 310 308 303 300 303 311 310 274 257 250 240 242 247 226 212 212 215 217 212 206 208 207 208 209 210 214 217 220 222 222 217
308 311 314 313 313 314 314 314 311 310 310 308 308 310 308 305 302 310 322 321 298 291 300 282 280 282 244 221 216 216 216 213 208 212 213 210 210 213 217 218 221 225 226 215
290 292 297 299 303 306 310 314 315 316 314 313 313 312 309 306 304 310 317 315 298 307 340 330 321 305 271 240 225 221 216 213 210 214 214 212 215 217 219 222 225 229 230 221
299 298 300 299 299 299 300 307 313 316 317 319 317 313 312 313 314 315 318 312 299 305 341 340 332 320 296 273 240 220 218 216 215 217 215 217 219 218 220 224 228 228 225 217
300 299 300 299 298 294 295 299 304 308 315 320 319 318 320 324 323 320 317 323 344 330 323 328 330 323 311 292 252 230 224 222 222 222 218 219 222 224 223 225 228 228 226 223
299 298 298 297 297 295 291 291 295 301 309 314 315 317 319 322 324 320 308 307 339 335 328 332 331 321 308 298 255 240 233 230 229 229 225 226 229 230 229 229 229 229 228 226
296 294 294 295 295 295 293 288 285 289 296 300 303 309 314 318 322 320 306 306 322 325 326 320 316 314 315 307 267 252 246 241 237 234 233 234 234 236 237 235 234 233 230 230
293 291 289 289 290 293 293 287 281 281 282 286 289 293 296 300 305 303 302 317 317 318 318 308 315 318 319 302 272 258 252 249 246 244 244 243 243 243 244 242 240 237 236 235
293 293 290 290 289 287 287 286 281 276 275 276 274 273 278 287 288 276 283 303 312 313 309 315 326 331 332 309 285 272 264 260 259 258 255 252 249 248 247 246 244 242 241 240
287 289 288 288 286 282 281 283 283 277 275 273 272 265 258 257 266 284 292 298 308 312 309 318 329 334 333 318 306 293 282 273 273 271 265 262 259 256 254 251 249 248 246 246
281 283 282 278 277 279 279 276 274 275 275 277 277 268 260 256 259 268 277 286 294 303 306 310 318 324 322 317 313 309 302 296 289 278 272 270 267 264 261 259 258 255 254 253
280 279 279 281 277 270 268 265 266 270 267 267 274 270 260 257 258 263 269 276 285 291 295 301 308 311 311 310 308 306 303 298 291 285 280 274 270 268 267 265 264 262 260 259
Height
1488 1489 1489 1489 1489 1490 1493 1489 1489 1482 1481 1479 1479 1480 1480 1480 1480 1479 1479 1479 1479 1481 1483 1486 1488 1491 1493 1495 1496 1497 1497 1497 1497 1496 1496 1496 1496 1496 1496 1496 1496 1496 1496 1496
1491 1490 1490 1490 1487 1487 1488 1486 1485 1484 1481 1478 1479 1479 1478 1477 1476 1475 1475 1475 1475 1477 1479 1482 1484 1487 1489 1491 1492 1492 1492 1493 1493 1493 1492 1492 1493 1493 1493 1494 1494 1494 1494 1494
1486 1490 1489 1484 1480 1482 1483 1483 1483 1481 1478 1477 1477 1476 1475 1473 1472 1470 1470 1470 1471 1472 1474 1477 1480 1483 1485 1487 1488 1488 1488 1489 1489 1489 1489 1489 1490 1491 1491 1492 1492 1492 1493 1493
1488 1490 1490 1479 1481 1481 1481 1481 1482 1481 1479 1478 1476 1473 1470 1468 1467 1465 1464 1465 1465 1467 1469 1472 1475 1478 1481 1482 1483 1484 1484 1484 1485 1485 1486 1486 1487 1488 1489 1490 1490 1491 1491 1492
1487 1484 1478 1478 1480 1481 1480 1479 1481 1480 1478 1476 1474 1469 1465 1464 1462 1460 1459 1460 1461 1462 1465 1468 1471 1473 1475 1477 1478 1479 1480 1481 1481 1482 1483 1484 1485 1486 1488 1488 1489 1490 1490 1491
1486 1484 1479 1478 1480 1480 1481 1477 1481 1480 1478 1475 1472 1467 1462 1461 1458 1456 1455 1455 1456 1458 1460 1463 1466 1468 1471 1472 1474 1475 1477 1477 1478 1479 1480 1482 1483 1485 1486 1487 1488 1488 1489 1489
1483 1482 1476 1479 1480 1481 1479 1478 1481 1479 1477 1475 1472 1469 1465 1460 1457 1454 1453 1453 1454 1455 1457 1459 1462 1464 1466 1468 1470 1472 1473 1474 1475 1477 1478 1480 1481 1483 1484 1485 1486 1487 1488 1488
1481 1481 1480 1481 1481 1481 1482 1482 1480 1478 1476 1473 1469 1465 1462 1459 1456 1454 1452 1452 1452 1453 1455 1457 1459 1461 1463 1465 1467 1469 1470 1471 1473 1474 1476 1477 1479 1481 1482 1483 1484 1485 1486 1486
1480 1481 1483 1483 1483 1484 1483 1481 1479 1476 1473 1470 1467 1463 1460 1458 1455 1454 1453 1452 1452 1453 1453 1455 1456 1458 1460 1463 1464 1466 1467 1469 1470 1472 1473 1475 1477 1478 1480 1481 1482 1483 1483 1484
1483 1482 1484 1483 1483 1483 1481 1479 1477 1474 1471 1468 1465 1462 1459 1457 1455 1454 1453 1452 1451 1452 1452 1453 1455 1456 1458 1460 1461 1463 1465 1466 1468 1469 1471 1472 1474 1475 1477 1478 1479 1480 1481 1481
1485 1484 1483 1482 1482 1481 1478 1476 1473 1471 1468 1466 1463 1460 1458 1455 1454 1453 1452 1451 1451 1451 1451 1452 1453 1454 1455 1456 1458 1460 1462 1463 1465 1466 1468 1469 1471 1472 1474 1475 1476 1477 1478 1478
1487 1488 1487 1483 1481 1478 1475 1472 1470 1467 1464 1462 1460 1457 1455 1453 1452 1451 1450 1449 1449 1449 1449 1450 1450 1451 1452 1454 1455 1457 1458 1459 1461 1463 1464 1466 1467 1469 1470 1471 1472 1473 1474 1474
1490 1486 1484 1480 1477 1475 1472 1469 1466 1463 1461 1458 1456 1454 1452 1450 1448 1448 1447 1446 1446 1446 1446 1447 1447 1448 1449 1450 1451 1452 1454 1455 1457 1458 1460 1461 1463 1464 1466 1467 1468 1469 1469 1470
1485 1483 1479 1476 1474 1471 1468 1465 1462 1459 1457 1454 1452 1450 1448 1446 1445 1444 1443 1443 1443 1442 1442 1443 1443 1444 1445 1446 1447 1448 1449 1451 1452 1454 1455 1457 1458 1459 1460 1461 1462 1463 1464 1464
1482 1480 1477 1472 1469 1466 1463 1460 1457 1455 1452 1450 1448 1446 1444 1442 1441 1440 1439 1439 1439 1439 1439 1439 1439 1440 1440 1441 1442 1443 1444 1445 1447 1448 1449 1451 1452 1453 1454 1455 1456 1457 1458 1458
1478 1475 1472 1469 1465 1462 1459 1456 1453 1450 1448 1446 1444 1442 1440 1439 1437 1436 1435 1435 1435 1434 1435 1435 1435 1435 1436 1436 1437 1438 1439 1440 1441 1442 1443 1445 1446 1447 1448 1448 1449 1450 1450 1451
1475 1471 1468 1464 1462 1458 1456 1453 1450 1447 1445 1442 1440 1438 1436 1435 1433 1432 1432 1431 1431 1431 1430 1431 1431 1431 1431 1431 1432 1432 1433 1434 1435 1436 1437 1438 1439 1440 1441 1442 1442 1442 1443 1444
1472 1469 1465 1462 1459 1455 1452 1449 1447 1444 1442 1439 1436 1434 1433 1431 1430 1429 1428 1428 1427 1427 1427 1426 1426 1426 1426 1426 1427 1427 1428 1428 1429 1430 1431 1432 1432 1433 1434 1434 1435 1435 1436 1436
1468 1465 1462 1459 1456 1453 1450 1447 1444 1441 1439 1436 1433 1431 1430 1428 1427 1426 1425 1424 1424 1423 1423 1423 1422 1422 1422 1422 1422 1422 1423 1423 1423 1424 1425 1426 1426 1427 1427 1427 1428 1428 1428 1428
1464 1461 1458 1455 1453 1450 1447 1444 1441 1439 1436 1434 1431 1429 1427 1425 1424 1423 1422 1421 1421 1420 1420 1419 1419 1418 1418 1418 1418 1418 1418 1418 1418 1419 1419 1420 1420 1420 1420 1420 1420 1421 1421 1421
1461 1458 1455 1452 1450 1447 1444 1442 1439 1436 1434 1431 1429 1427 1425 1423 1422 1421 1420 1419 1419 1417 1417 1416 1415 1415 1415 1414 1414 1414 1414 1413 1413 1413 1414 1414 1414 1414 1414 1414 1414 1414 1414 1414
1457 1455 1452 1449 1446 1444 1441 1439 1436 1434 1432 1429 1427 1425 1423 1422 1420 1419 1418 1417 1416 1415 1414 1413 1412 1412 1411 1411 1410 1410 1409 1409 1409 1408 1408 1408 1408 1408 1407 1407 1407 1407 1407 1407
1454 1451 1448 1446 1443 1440 1438 1436 1433 1431 1429 1427 1425 1423 1422 1420 1418 1417 1416 1415 1414 1412 1411 1410 1409 1409 1408 1407 1406 1406 1405 1405 1404 1404 1403 1403 1402 1402 1402 1402 1401 1401 1401 1401
1451 1448 1445 1442 1440 1437 1435 1433 1431 1428 1426 1424 1423 1421 1419 1418 1416 1415 1414 1412 1411 1410 1409 1408 1407 1406 1405 1404 1403 1402 1401 1401 1400 1399 1399 1398 1398 1397 1397 1396 1396 1396 1396 1396
1447 1444 1441 1439 1436 1434 1431 1429 1427 1425 1423 1421 1420 1418 1417 1415 1414 1413 1411 1410 1409 1408 1406 1405 1404 1403 1402 1401 1400 1399 1398 1397 1396 1395 1394 1394 1393 1392 1392 1392 1391 1391 1391 1391
1443 1440 1438 1435 1433 1430 1427 1425 1423 1422 1420 1418 1417 1415 1414 1413 1411 1410 1409 1408 1406 1405 1404 1403 1401 1400 1399 1398 1396 1395 1394 1393 1392 1391 1390 1389 1389 1388 1388 1387 1387 1387 1387 1387
1439 1436 1433 1431 1429 1426 1424 1422 1420 1418 1416 1415 1413 1412 1411 1409 1408 1407 1406 1405 1404 1402 1401 1400 1398 1397 1396 1394 1393 1392 1391 1389 1388 1387 1386 1385 1384 1384 1383 1383 1383 1382 1382 1382